K5GTX Weather Reports


time (UTC)temp
F
wind
direction
speed
knots
gust
knots
rain 1hr
in
rain 24hr
in
rain mn
in
humidity
%
barometer
mb
20260506153605 53 12 0.9 5.2 0.00 0.00 0.00 99 1023.3
20260506153103 53 330 1.7 5.2 0.00 0.00 0.00 99 1023.3
20260506152559 54 339 2.6 7.0 0.00 0.00 0.00 99 1022.8
20260506152057 54 352 4.3 4.3 0.00 0.00 0.00 99 1022.3
20260506151555 54 73 4.3 4.3 0.00 0.00 0.00 99 1022.0
20260506151052 54 23 4.3 5.2 0.00 0.00 0.00 99 1021.5
20260506150548 54 46 3.5 8.7 0.00 0.00 0.00 99 1021.6
20260506150045 54 28 3.5 13.0 0.00 0.00 0.00 99 1020.6
20260506145542 54 26 7.0 10.4 0.00 0.00 0.00 99 1021.5
20260506145040 54 23 7.8 8.7 0.00 0.00 0.00 99 1021.5
20260506144536 54 355 1.7 8.7 0.00 0.00 0.00 99 1021.5
20260506144034 54 0 2.6 7.8 0.00 0.00 0.00 99 1021.7
20260506143531 54 48 5.2 5.2 0.00 0.00 0.00 99 1021.6
20260506143030 54 5 6.1 7.8 0.00 0.00 0.00 99 1021.8
20260506142527 54 41 10.4 10.4 0.00 0.00 0.00 99 1021.4
20260506142025 54 15 1.7 7.8 0.00 0.00 0.00 99 1021.2
20260506141522 54 9 4.3 9.6 0.00 0.00 0.00 99 1020.7
20260506141021 54 13 2.6 7.8 0.00 0.00 0.00 99 1021.2
20260506140518 54 352 2.6 6.1 0.00 0.00 0.00 99 1020.8
20260506140015 53 95 1.7 7.8 0.00 0.00 0.00 99 1020.7
20260506135512 53 67 3.5 9.6 0.00 0.00 0.00 99 1020.6
20260506135008 53 7 4.3 8.7 0.00 0.00 0.00 99 1020.6
20260506134504 54 57 3.5 8.7 0.00 0.00 0.00 99 1020.6
20260506134000 53 28 2.6 4.3 0.00 0.00 0.00 99 1020.4
20260506133457 54 33 8.7 8.7 0.00 0.00 0.00 99 1020.3
20260506132954 53 106 0.0 7.0 0.00 0.00 0.00 99 1020.7
20260506132451 53 3 4.3 8.7 0.00 0.00 0.00 99 1020.0
20260506131949 53 291 0.9 5.2 0.00 0.00 0.00 99 1019.9
20260506131445 53 71 0.0 4.3 0.00 0.00 0.00 99 1019.8
20260506130942 53 121 1.7 6.1 0.00 0.00 0.00 99 1019.9
20260506130439 53 66 1.7 6.1 0.00 0.00 0.00 99 1020.1
20260506125937 53 11 2.6 5.2 0.00 0.00 0.00 99 1019.9
20260506125435 53 300 0.9 4.3 0.00 0.00 0.00 99 1019.9
20260506124933 53 354 4.3 10.4 0.00 0.00 0.00 99 1019.9
20260506124430 53 4 8.7 10.4 0.00 0.00 0.00 99 1019.9
20260506123928 53 19 4.3 9.6 0.00 0.00 0.00 99 1019.7
20260506123426 53 86 1.7 7.0 0.00 0.00 0.00 99 1019.9
20260506122923 53 347 4.3 7.8 0.00 0.00 0.00 99 1019.7
20260506122419 53 7 7.8 7.8 0.00 0.00 0.00 99 1019.6
20260506121918 53 17 9.6 12.2 0.00 0.00 0.00 99 1019.5
20260506121414 53 14 5.2 9.6 0.00 0.00 0.00 99 1019.3
20260506120911 54 0 1.7 4.3 0.00 0.00 0.00 99 1019.6
20260506120409 54 90 0.0 7.0 0.00 0.00 0.00 99 1019.7
20260506115906 53 319 3.5 15.6 0.00 0.00 0.00 99 1019.6
20260506115404 53 39 6.1 14.8 0.00 0.00 0.00 99 1019.1
20260506114902 54 0 2.6 7.8 0.00 0.00 0.00 99 1019.5
20260506114359 54 14 1.7 8.7 0.00 0.00 0.00 99 1019.2
20260506113858 54 12 2.6 12.2 0.00 0.00 0.00 99 1018.8
20260506113355 54 32 7.8 9.6 0.00 0.00 0.00 99 1018.7
20260506112852 54 50 2.6 13.0 0.00 0.00 0.00 99 1018.7
20260506112349 54 88 5.2 13.0 0.00 0.00 0.00 99 1018.9
20260506111846 55 333 6.1 8.7 0.00 0.00 0.00 99 1018.5
20260506111344 55 261 1.7 12.2 0.00 0.00 0.00 99 1018.4
20260506110841 55 8 2.6 7.8 0.00 0.00 0.00 99 1018.5
20260506110338 55 52 9.6 14.8 0.00 0.00 0.00 99 1018.4
20260506105835 55 302 6.1 13.0 0.00 0.00 0.00 99 1018.3
20260506105332 55 56 3.5 7.8 0.00 0.00 0.00 99 1018.5
20260506104829 55 61 7.0 12.2 0.00 0.00 0.00 99 1018.1
20260506104327 55 33 7.0 7.0 0.00 0.00 0.00 99 1018.3
20260506103824 55 50 5.2 11.3 0.00 0.00 0.00 99 1017.9
20260506103322 56 5 3.5 7.0 0.00 0.00 0.00 99 1017.9
20260506102819 55 33 4.3 7.8 0.00 0.00 0.00 99 1017.8
20260506102317 56 16 3.5 9.6 0.00 0.00 0.00 99 1017.7
20260506101814 56 312 3.5 8.7 0.00 0.00 0.00 99 1017.7
20260506101310 56 322 3.5 9.6 0.00 0.00 0.00 99 1017.4
20260506100808 56 60 7.8 7.8 0.00 0.00 0.00 99 1017.3
20260506100306 56 11 2.6 7.8 0.00 0.00 0.00 99 1017.4
20260506095804 56 18 3.5 8.7 0.00 0.00 0.00 99 1017.3
20260506095301 56 62 7.0 9.6 0.00 0.00 0.00 99 1017.2
20260506094757 57 24 6.1 8.7 0.00 0.00 0.00 99 1017.2
20260506094256 57 19 3.5 10.4 0.00 0.00 0.00 99 1017.2
20260506093754 57 346 3.5 7.8 0.00 0.00 0.00 99 1017.2
20260506093251 57 26 3.5 7.8 0.00 0.00 0.00 99 1017.1
20260506092749 57 56 4.3 6.1 0.00 0.00 0.00 99 1017.2
20260506092246 57 10 2.6 7.0 0.00 0.00 0.00 99 1017.2
20260506091743 57 44 6.1 6.1 0.00 0.00 0.00 99 1017.0
20260506091241 58 21 1.7 1.7 0.00 0.00 0.00 99 1017.1
20260506090739 57 26 4.3 7.0 0.00 0.00 0.00 99 1016.8
20260506090235 58 70 3.5 9.6 0.00 0.00 0.00 99 1017.0
20260506085732 58 3 2.6 7.8 0.00 0.00 0.00 99 1016.9
20260506085228 58 13 3.5 5.2 0.00 0.00 0.00 99 1016.8
20260506084726 58 339 4.3 7.8 0.00 0.00 0.00 99 1016.7
20260506084221 58 326 1.7 4.3 0.00 0.00 0.00 99 1016.8
20260506083718 58 90 3.5 6.1 0.00 0.00 0.00 99 1016.6
20260506083216 57 24 4.3 6.1 0.00 0.00 0.00 99 1016.6
20260506082713 57 29 2.6 7.0 0.00 0.00 0.00 99 1016.5
20260506082209 57 90 0.0 7.8 0.00 0.00 0.00 99 1016.5
20260506081707 57 95 1.7 7.0 0.00 0.00 0.00 99 1016.5
20260506081204 57 13 4.3 6.1 0.00 0.00 0.00 99 1016.0
20260506080701 57 61 1.7 6.1 0.00 0.00 0.00 99 1016.4
20260506080158 58 96 0.9 3.5 0.00 0.00 0.00 99 1016.3
20260506073143 58 0 0.0 8.7 0.00 0.00 0.00 99 1016.4
20260506072638 58 29 2.6 8.7 0.00 0.00 0.00 99 1016.3
20260506072137 59 30 4.3 5.2 0.00 0.00 0.00 99 1016.5
20260506071634 58 22 2.6 6.1 0.00 0.00 0.00 99 1016.4
20260506071131 58 10 2.6 3.5 0.00 0.00 0.00 99 1016.3
20260506070628 58 31 5.2 7.0 0.00 0.00 0.00 99 1016.4
20260506070126 59 353 2.6 6.1 0.00 0.00 0.00 99 1016.4
20260506062103 60 25 2.6 4.3 0.00 0.00 0.00 99 1016.1
20260506061558 60 297 1.7 6.1 0.00 0.00 0.00 99 1016.4
20260506061056 60 58 5.2 7.0 0.00 0.00 0.00 99 1016.2
20260506060555 60 36 2.6 8.7 0.00 0.00 0.00 99 1016.1
20260506051024 62 0 0.0 7.0 0.00 0.00 0.00 99 1016.3
20260506050521 62 49 4.3 7.0 0.00 0.00 0.00 99 1016.2
20260506045011 62 64 2.6 9.6 0.00 0.00 0.00 99 1016.0
20260506044510 62 312 3.5 6.1 0.00 0.00 0.00 99 1016.2
20260506044006 63 5 5.2 8.7 0.00 0.00 0.00 99 1016.2
20260506043503 63 24 4.3 6.1 0.00 0.00 0.00 99 1015.8
20260506043001 63 9 4.3 7.0 0.00 0.00 0.00 99 1016.0
20260506042501 63 28 5.2 7.8 0.00 0.00 0.00 99 1015.8
20260506041958 63 357 2.6 10.4 0.00 0.00 0.00 99 1016.1
20260506041456 63 48 7.0 8.7 0.00 0.00 0.00 99 1015.9
20260506040953 63 33 4.3 7.0 0.00 0.00 0.00 99 1015.5
20260506040451 64 97 2.6 6.1 0.00 0.00 0.00 99 1015.6
20260506035946 64 19 3.5 4.3 0.00 0.00 0.00 99 1015.5
20260506035444 64 36 7.8 7.8 0.00 0.00 0.00 99 1015.6
20260506034940 65 29 5.2 7.8 0.00 0.00 0.00 99 1015.5
20260506034438 65 50 3.5 13.9 0.00 0.00 0.00 99 1015.3
20260506033935 66 12 5.2 11.3 0.00 0.00 0.00 99 1015.2
20260506033432 66 26 7.8 12.2 0.00 0.00 0.00 99 1015.4
20260506032928 66 83 6.1 8.7 0.00 0.00 0.00 99 1015.2
20260506032426 66 0 2.6 10.4 0.00 0.00 0.00 99 1014.7
20260506031922 67 33 4.3 9.6 0.00 0.00 0.00 99 1014.7
20260506031419 68 50 2.6 7.8 0.00 0.00 0.00 99 1014.5
20260506030917 68 8 5.2 8.7 0.00 0.00 0.00 99 1014.6
20260506030415 68 56 1.7 11.3 0.00 0.00 0.00 99 1014.5
20260506025911 69 25 5.2 9.6 0.00 0.00 0.00 99 1014.5
20260506025409 69 29 7.0 7.8 0.00 0.00 0.00 99 1014.4
20260506024905 69 352 5.2 9.6 0.00 0.00 0.00 99 1014.5
20260506024402 69 7 3.5 8.7 0.00 0.00 0.00 99 1014.2
20260506023858 69 126 3.5 11.3 0.00 0.00 0.00 99 1013.8
20260506023355 70 0 0.0 5.2 0.00 0.00 0.00 99 1013.4
20260506022852 70 16 7.0 11.3 0.00 0.00 0.00 99 1013.5
20260506022349 70 7 7.8 9.6 0.00 0.00 0.00 99 1013.4
20260506021847 71 356 2.6 7.8 0.00 0.00 0.00 99 1013.3
20260506021344 71 16 4.3 7.8 0.00 0.00 0.00 99 1013.3
20260506020840 71 86 1.7 8.7 0.00 0.00 0.00 99 1012.9
20260506020339 73 58 2.6 8.7 0.00 0.00 0.00 99 1012.4
20260506015836 73 22 6.1 9.6 0.00 0.00 0.00 99 1012.7
20260506015334 73 43 3.5 6.1 0.00 0.00 0.00 99 1012.9
20260506014830 73 54 3.5 4.3 0.00 0.00 0.00 99 1012.7
20260506014327 73 45 3.5 4.3 0.00 0.00 0.00 99 1012.5
20260506013823 73 26 4.3 7.8 0.00 0.00 0.00 99 1012.6
20260506013321 74 15 2.6 5.2 0.00 0.00 0.00 99 1012.6
20260506012817 74 20 2.6 5.2 0.00 0.00 0.00 99 1012.4
20260506012314 74 50 2.6 6.1 0.00 0.00 0.00 99 1012.8
20260506011812 74 23 3.5 5.2 0.00 0.00 0.00 99 1012.6
20260506011308 74 65 4.3 5.2 0.00 0.00 0.00 99 1012.4
20260506010806 74 46 7.0 7.8 0.00 0.00 0.00 99 1012.3
20260506010303 74 0 2.6 3.5 0.00 0.00 0.00 99 1012.3
20260506005800 74 47 2.6 5.2 0.00 0.00 0.00 99 1012.0
20260506005257 74 11 4.3 7.8 0.00 0.00 0.00 99 1011.7
20260506004753 75 20 8.7 8.7 0.00 0.00 0.00 99 1011.8
20260506004251 75 29 6.1 8.7 0.00 0.00 0.00 99 1011.9
20260506003746 76 9 4.3 7.8 0.00 0.00 0.00 99 1011.9
20260506003243 76 12 7.8 8.7 0.00 0.00 0.00 99 1011.8
20260506002739 77 354 0.0 7.0 0.00 0.00 0.00 99 1011.7
20260506002236 78 353 2.6 6.1 0.00 0.00 0.00 99 1011.6
20260506001731 78 92 5.2 8.7 0.00 0.00 0.00 99 1011.8
20260506001229 79 358 2.6 6.1 0.00 0.00 0.00 99 1011.8
20260506000726 79 17 3.5 5.2 0.00 0.00 0.00 99 1011.5
20260506000226 80 266 2.6 7.8 0.00 0.00 0.00 99 1011.0
20260505235720 80 26 1.7 6.1 0.00 0.00 0.00 99 1011.0
20260505235219 80 90 0.9 8.7 0.00 0.00 0.00 99 1010.7
20260505234715 81 110 1.7 10.4 0.00 0.00 0.00 99 1010.8
20260505234212 81 19 4.3 7.0 0.00 0.00 0.00 99 1011.0
20260505233708 82 8 3.5 12.2 0.00 0.00 0.00 99 1010.8
20260505233206 83 51 6.1 7.8 0.00 0.00 0.00 99 1011.0
20260505232704 84 70 2.6 8.7 0.00 0.00 0.00 99 1010.7
20260505232201 85 228 1.7 6.1 0.00 0.00 0.00 99 1010.6
20260505231657 85 293 2.6 4.3 0.00 0.00 0.00 99 1010.4
20260505231157 86 325 0.9 5.2 0.00 0.00 0.00 99 1010.3
20260505230654 86 331 2.6 5.2 0.00 0.00 0.00 99 1010.3
20260505230151 86 331 0.9 7.8 0.00 0.00 0.00 99 1010.2
20260505225647 88 344 4.3 10.4 0.00 0.00 0.00 99 1009.9
20260505225143 89 262 2.6 2.6 0.00 0.00 0.00 99 1009.8
20260505224639 89 274 2.6 7.0 0.00 0.00 0.00 99 1009.9
20260505224138 89 200 0.9 4.3 0.00 0.00 0.00 99 1009.9
20260505223635 89 208 1.7 4.3 0.00 0.00 0.00 99 1009.7
20260505223130 89 255 2.6 5.2 0.00 0.00 0.00 99 1009.5
20260505222627 90 162 1.7 2.6 0.00 0.00 0.00 99 1009.6
20260505222123 89 246 0.0 2.6 0.00 0.00 0.00 99 1009.5
20260505221620 90 124 0.0 5.2 0.00 0.00 0.00 99 1009.4
20260505221117 90 120 0.0 4.3 0.00 0.00 0.00 99 1009.3
20260505220614 90 270 1.7 9.6 0.00 0.00 0.00 99 1009.5
20260505220112 90 172 0.0 2.6 0.00 0.00 0.00 99 1009.6
20260505215609 91 270 0.0 5.2 0.00 0.00 0.00 99 1009.7
20260505215107 93 114 0.0 2.6 0.00 0.00 0.00 99 1009.7
20260505214605 91 259 4.3 4.3 0.00 0.00 0.00 99 1009.6
20260505214102 91 121 1.7 5.2 0.00 0.00 0.00 99 1009.7
20260505213600 90 130 0.0 6.1 0.00 0.00 0.00 99 1009.7
20260505213056 91 228 0.0 7.8 0.00 0.00 0.00 99 1009.8
20260505212552 89 228 1.7 6.1 0.00 0.00 0.00 99 1009.6
20260505212050 91 232 3.5 3.5 0.00 0.00 0.00 99 1009.9
20260505211547 90 266 2.6 5.2 0.00 0.00 0.00 99 1010.3
20260505211043 91 225 3.5 4.3 0.00 0.00 0.00 99 1010.0
20260505210540 91 285 0.0 7.8 0.00 0.00 0.00 99 1010.0
20260505210037 91 129 1.7 4.3 0.00 0.00 0.00 99 1010.3
20260505205535 89 255 0.0 9.6 0.00 0.00 0.00 99 1010.2
20260505205032 88 105 0.9 6.1 0.00 0.00 0.00 99 1010.6
20260505204530 87 242 2.6 9.6 0.00 0.00 0.00 99 1010.3
20260505204027 87 195 0.9 13.0 0.00 0.00 0.00 99 1010.4
20260505203523 89 252 2.6 7.0 0.00 0.00 0.00 99 1010.8
20260505203020 89 270 0.0 7.0 0.00 0.00 0.00 99 1010.5
20260505202516 89 150 1.7 4.3 0.00 0.00 0.00 99 1010.5
20260505202012 90 144 0.0 4.3 0.00 0.00 0.00 99 1010.8
20260505201510 88 257 4.3 8.7 0.00 0.00 0.00 99 1010.7
20260505201007 87 195 1.7 10.4 0.00 0.00 0.00 99 1010.6
20260505200505 89 241 1.7 6.1 0.00 0.00 0.00 99 1010.6
20260505200001 87 218 4.3 9.6 0.00 0.00 0.00 99 1011.0
20260505195458 88 246 7.0 12.2 0.00 0.00 0.00 99 1010.9
20260505194955 87 247 2.6 7.8 0.00 0.00 0.00 99 1011.1
20260505194452 87 262 2.6 8.7 0.00 0.00 0.00 99 1011.1
20260505193952 86 228 0.0 4.3 0.00 0.00 0.00 99 1011.2
20260505193450 86 236 4.3 7.8 0.00 0.00 0.00 99 1010.9
20260505192947 87 158 3.5 4.3 0.00 0.00 0.00 99 1010.8
20260505192446 86 242 7.8 11.3 0.00 0.00 0.00 99 1011.0
20260505191943 86 250 3.5 9.6 0.00 0.00 0.00 99 1010.8
20260505191442 86 137 3.5 7.8 0.00 0.00 0.00 99 1010.7
20260505190938 85 241 3.5 12.2 0.00 0.00 0.00 99 1010.9
20260505190433 85 233 4.3 13.0 0.00 0.00 0.00 99 1011.0
20260505185929 85 198 1.7 12.2 0.00 0.00 0.00 99 1011.0
20260505185427 84 223 3.5 9.6 0.00 0.00 0.00 99 1011.0
20260505184922 83 204 1.7 14.8 0.00 0.00 0.00 99 1011.0
20260505184420 84 123 0.0 5.2 0.00 0.00 0.00 99 1011.2
20260505183916 83 228 1.7 6.1 0.00 0.00 0.00 99 1011.3
20260505183413 83 217 5.2 8.7 0.00 0.00 0.00 99 1011.0
20260505182910 83 254 6.1 9.6 0.00 0.00 0.00 99 1011.2
20260505182407 84 198 1.7 3.5 0.00 0.00 0.00 99 1011.0
20260505181903 83 180 1.7 7.0 0.00 0.00 0.00 99 1011.3
20260505181401 83 117 0.9 12.2 0.00 0.00 0.00 99 1011.2
20260505180857 83 240 1.7 9.6 0.00 0.00 0.00 99 1011.4
20260505180354 82 209 2.6 17.4 0.00 0.00 0.00 99 1011.0
20260505175850 83 209 4.3 7.8 0.00 0.00 0.00 99 1011.0
20260505175346 84 258 5.2 7.8 0.00 0.00 0.00 99 1011.1
20260505174837 83 237 6.1 12.2 0.00 0.00 0.00 99 1011.1
20260505174335 82 233 2.6 8.7 0.00 0.00 0.00 99 1011.4
20260505173830 82 220 0.0 11.3 0.00 0.00 0.00 99 1011.1
20260505173327 82 148 3.5 5.2 0.00 0.00 0.00 99 1011.3
20260505172825 82 246 2.6 9.6 0.00 0.00 0.00 99 1011.4
20260505172322 81 229 2.6 11.3 0.00 0.00 0.00 99 1011.4
20260505171822 82 196 2.6 10.4 0.00 0.00 0.00 99 1011.4
20260505171319 81 198 2.6 7.8 0.00 0.00 0.00 99 1011.5
20260505170815 80 227 9.6 12.2 0.00 0.00 0.00 99 1011.5
20260505170312 80 24 0.0 13.0 0.00 0.00 0.00 99 1011.5
20260505165808 81 155 2.6 7.8 0.00 0.00 0.00 99 1011.6
20260505165306 81 243 0.9 7.8 0.00 0.00 0.00 99 1011.6
20260505164759 80 188 0.0 10.4 0.00 0.00 0.00 99 1011.3
20260505164256 80 261 2.6 7.0 0.00 0.00 0.00 99 1011.3
20260505163755 80 275 0.0 11.3 0.00 0.00 0.00 99 1011.5
20260505163253 79 195 1.7 10.4 0.00 0.00 0.00 99 1011.7
20260505162750 79 228 4.3 13.9 0.00 0.00 0.00 99 1011.4
20260505162247 79 306 0.0 7.8 0.00 0.00 0.00 99 1011.3
20260505161744 80 120 0.0 7.8 0.00 0.00 0.00 99 1011.6
20260505161241 79 150 1.7 7.0 0.00 0.00 0.00 99 1011.4
20260505160738 79 115 1.7 7.8 0.00 0.00 0.00 99 1011.1
20260505160236 79 243 7.0 9.6 0.00 0.00 0.00 99 1011.1